Location: Boston
(42.3580°N, 71.0600°W)
Time: 03:28:50
(UTC-04:00)

ISS - Visible Passes

Search period start: 20 March 2019 00:00
Search period end: 30 March 2019 00:00
Orbit: 406 x 411 km, 51.6° (Epoch: 20 March)

Date Brightness Start Highest point End Pass type
(mag) Time Alt. Az. Time Alt. Az. Time Alt. Az.
20 Mar -1.8 20:53:54 10° SW 20:55:14 22° SW 20:55:14 22° SW visible
21 Mar -3.1 20:03:12 10° SSW 20:06:14 35° SE 20:07:18 27° E visible
21 Mar -0.6 21:39:44 10° W 21:40:05 12° W 21:40:05 12° W visible
22 Mar -3.2 20:48:26 10° WSW 20:51:40 53° NNW 20:51:55 52° N visible
23 Mar -3.9 19:57:19 10° SW 20:00:37 88° SE 20:03:33 13° ENE visible
23 Mar -0.9 21:34:52 10° WNW 21:36:19 18° NW 21:36:19 18° NW visible
24 Mar -2.0 20:43:22 10° W 20:46:18 29° NNW 20:47:44 21° NNE visible
25 Mar -2.7 19:51:58 10° W 19:55:07 42° NNW 19:58:18 10° NE visible
25 Mar -1.0 21:30:01 10° NW 21:31:47 17° NNW 21:31:47 17° NNW visible
26 Mar -1.4 20:38:28 10° WNW 20:41:00 20° NNW 20:42:56 13° NNE visible
27 Mar -1.8 19:46:54 10° WNW 19:49:43 25° NNW 19:52:32 10° NE visible
27 Mar -1.1 21:24:56 10° NW 21:26:45 16° N 21:26:45 16° N visible
28 Mar -1.3 20:33:31 10° NW 20:35:44 17° N 20:37:45 11° NE visible
29 Mar -1.4 19:41:58 10° WNW 19:44:23 18° N 19:46:47 10° NE visible
29 Mar -1.4 21:19:27 10° NW 21:21:25 18° N 21:21:25 18° N visible
